[[{"header":{"parameterUnit":"m.s-1","parameterCategory":1,"la1":30.2991,"la2":30.254,"lo1":-89.0895,"lo2":-89.0444,"dy":0.0017,"dx":0.0017,"nx":28,"ny":28,"refTime":"2023-10-06T03:00:00:Z","depth":0,"parameterNumber":2,"parameterNumberName":"U-component_of_WINDS"},"data":[0,0,0,0,0,0,0,0,0,0,0,0,0,0,0,0,0,0,0,0,0,0,0,0,0,0,0,0,0,0,0,0,0,0,0,0,0,0,0,0,0,0,0,0,0,0,0,0,0,0,0,0,0,0,0,0,0,0,-2.6627,-2.6627,0,-2.6666,-2.6666,-2.6667,-2.6634,-2.6632,-2.6631,-2.663,-2.6669,-2.6671,-2.6674,0,0,0,0,0,0,0,0,0,0,0,0,0,-2.6523,-2.6526,-2.6626,-2.6627,-2.6627,-2.6666,-2.6666,-2.6667,-2.6634,-2.6632,-2.6631,-2.6629,-2.6668,-2.6671,-2.6674,0,0,0,0,0,0,0,0,0,0,0,0,0,-2.6566,-2.6526,-2.6626,-2.6616,-2.6615,-2.6666,-2.6666,-2.6667,-2.6634,-2.6632,-2.663,-2.6628,-2.6667,-2.6671,-2.6674,-2.6737,0,0,-2.6685,-2.6687,0,0,0,0,0,0,0,0,-2.6564,-2.657,-2.6617,-2.6616,-2.6616,-2.6643,-2.6644,-2.6691,-2.6635,-2.6627,-2.663,-2.6627,-2.6662,-2.6666,-2.6678,-2.6739,-2.6741,-2.6685,-2.6687,-2.6689,-2.669,0,0,0,0,0,0,0,-2.6561,-2.6568,-2.6642,-2.6617,-2.6617,-2.6609,-2.6613,-2.6653,-2.6656,-2.6627,-2.6625,-2.663,-2.6661,-2.6674,-2.6678,-2.6741,-2.6685,-2.6688,-2.669,-2.6692,-2.6857,-2.6859,0,0,0,0,0,0,-2.6559,-2.6566,-2.6641,-2.6643,-2.6584,-2.6613,-2.6617,-2.6636,-2.6655,-2.6656,-2.6632,-2.6629,-2.6669,-2.6674,-2.668,-2.6754,-2.6689,-2.6692,-2.6694,-2.6855,-2.6858,-2.686,0,0,0,0,0,0,-2.6557,-2.6566,-2.6639,-2.6604,-2.6613,-2.6617,-2.6639,-2.6638,-2.6651,-2.6658,-2.6659,-2.6645,-2.6668,-2.6675,-2.6723,-2.6755,-2.6694,-2.6697,-2.6852,-2.6856,-2.6859,-2.6904,0,0,0,0,0,0,-2.6554,-2.6565,-2.6589,-2.6605,-2.6615,-2.6682,-2.6641,-2.664,-2.6657,-2.6653,-2.667,-2.6671,-2.6667,-2.6718,-2.6727,-2.6759,-2.67,-2.6849,-2.6854,-2.6858,-2.6899,-2.6908,-2.6916,0,0,0,0,0,-2.655,-2.66,-2.659,-2.6599,-2.6644,-2.6684,-2.6689,-2.6683,-2.666,-2.6684,-2.6689,-2.6671,-2.6751,-2.6724,-2.6733,-2.6766,-2.6847,-2.6853,-2.6858,-2.6896,-2.6906,-2.6916,0,0,0,0,0,0,-2.6587,-2.6601,-2.6591,-2.6647,-2.6665,-2.6678,-2.6708,-2.6695,-2.6719,-2.6714,-2.6706,-2.671,-2.6761,-2.6769,-2.6738,-2.6829,-2.6795,-2.6803,-2.6821,-2.6831,-2.6839,-2.6835,-2.6703,0,0,0,0,0,-2.6601,-2.6632,-2.6644,-2.6692,-2.6701,-2.6704,-2.672,-2.6715,-2.6732,-2.6739,-2.6748,-2.6766,-2.6795,-2.6814,-2.6841,-2.6902,-2.6905,-2.6929,-2.6938,-2.6944,-2.695,-2.6982,-2.6993,-2.6877,-2.6877,-2.6877,0,0,-2.6631,-2.6643,-2.6663,-2.67,-2.6712,-2.6745,-2.671,-2.6745,-2.6769,-2.6745,-2.679,-2.6798,-2.6818,-2.6872,-2.6897,-2.688,-2.6983,-2.6951,-2.6956,-2.6958,-2.6989,-2.7,-2.7009,-2.6881,-2.688,-2.6879,0,0,-2.6702,-2.6715,-2.6756,-2.677,-2.6791,-2.6792,-2.6802,-2.6819,-2.6823,-2.6869,-2.6852,-2.6881,-2.6931,-2.6946,-2.696,-2.704,-2.7024,-2.7049,-2.7091,-2.7122,-2.7132,-2.714,-2.7167,-2.7177,-2.7055,-2.7055,-2.7055,0,-2.6736,-2.6784,-2.6779,-2.6816,-2.6832,-2.6814,-2.6855,-2.687,-2.6898,-2.691,-2.6891,-2.6955,-2.6967,-2.7024,-2.7044,-2.7057,-2.7068,-2.7045,-2.7131,-2.7139,-2.7146,-2.7172,-2.7182,-2.7058,-2.7058,-2.7057,-2.7057,0,-2.6825,-2.6859,-2.689,-2.6918,-2.6939,-2.6978,-2.6979,-2.7,-2.6994,-2.6998,-2.7046,-2.706,-2.709,-2.7104,-2.7098,-2.7161,-2.715,-2.7132,-2.7097,-2.716,-2.7184,-2.7194,-2.7062,-2.7061,-2.706,-2.7059,0,0,-2.6916,-2.6943,-2.6954,-2.6967,-2.6989,-2.7015,-2.7055,-2.7085,-2.7103,-2.7124,-2.7156,-2.7201,-2.7184,-2.72,-2.7196,-2.7224,-2.7286,-2.7202,-2.7203,-2.7216,-2.7356,-2.7368,-2.7379,-2.7277,-2.7279,-2.728,-2.7354,0,-2.6987,-2.7054,-2.7052,-2.7115,-2.7146,-2.713,-2.7164,-2.7182,-2.7187,-2.7215,-2.7221,-2.7252,-2.7228,-2.7238,-2.7266,-2.7272,-2.7313,-2.7267,-2.7306,-2.7307,-2.7298,-2.7392,-2.7405,-2.7473,-2.7363,-2.7365,-2.7366,0,-2.7077,-2.7101,-2.7167,-2.7186,-2.7199,-2.723,-2.7257,-2.7284,-2.7305,-2.7307,-2.7326,-2.7318,-2.7358,-2.7326,-2.7381,-2.735,-2.7366,-2.7372,-2.7375,-2.7376,-2.7338,-2.7394,-2.7495,-2.7505,-2.7381,-2.738,-2.7379,0,-2.7135,-2.7185,-2.7231,-2.7242,-2.7266,-2.7288,-2.7299,-2.7317,-2.7336,-2.7361,-2.7372,-2.7402,-2.7417,-2.7441,-2.7441,-2.7417,-2.7497,-2.7464,-2.7499,-2.7499,-2.7513,-2.7512,-2.7616,-2.7528,-2.7528,-2.7528,-2.7528,0,-2.7212,-2.7252,-2.7257,-2.7285,-2.733,-2.7329,-2.7374,-2.7383,-2.74,-2.7429,-2.7419,-2.7447,-2.7447,-2.7476,-2.7477,-2.7522,-2.753,-2.7532,-2.7531,-2.7532,-2.7531,-2.754,-2.7534,-2.7531,-2.753,-2.7529,-2.7529,0,-2.7282,-2.7287,-2.7336,-2.7355,-2.7361,-2.7394,-2.741,-2.7437,-2.7443,-2.7481,-2.7489,-2.7498,-2.7532,-2.7536,-2.7575,-2.7576,-2.763,-2.7625,-2.7623,-2.7621,-2.7655,-2.7651,-2.7766,-2.7781,-2.7685,-2.7686,-2.7687,0,-2.733,-2.7361,-2.7384,-2.7403,-2.7415,-2.7447,-2.7466,-2.7466,-2.7486,-2.7513,-2.7537,-2.757,-2.7596,-2.7651,-2.7661,-2.7692,-2.7686,-2.7725,-2.769,-2.769,-2.7685,-2.7682,-2.7685,-2.773,-2.7731,-2.7732,-2.7733,0,-2.7413,-2.7415,-2.7443,-2.7472,-2.7495,-2.7519,-2.754,-2.7557,-2.756,-2.7584,-2.7618,-2.7639,-2.768,-2.7713,-2.7743,-2.7755,-2.7744,-2.7745,-2.7754,-2.7753,-2.7749,-2.775,-2.7638,-2.7741,-2.774,-2.7739,-2.7739,-2.7739,-2.7473,-2.7499,-2.752,-2.7552,-2.7569,-2.759,-2.7616,-2.7626,-2.7654,-2.7687,-2.7687,-2.7725,-2.7746,-2.7786,-2.78,-2.783,-2.7817,-2.7831,-2.7834,-2.7837,-2.784,-2.7747,-2.7836,-2.7836,-2.7836,-2.7836,-2.7835,0,-2.7554,-2.7567,-2.7597,-2.7628,-2.7653,-2.7643,-2.7667,-2.7689,-2.7722,-2.7743,-2.777,-2.781,-2.7842,-2.7856,-2.7888,-2.791,-2.7906,-2.7918,-2.7915,-2.7918,-2.785,-2.7838,-2.792,-2.792,-2.792,-2.792,-2.792,-2.792,-2.7599,-2.7644,-2.7648,-2.7702,-2.7715,-2.7752,-2.7766,-2.7786,-2.7803,-2.7848,-2.7875,-2.7884,-2.7902,-2.7936,-2.7965,-2.7969,-2.798,-2.7994,-2.7995,-2.7931,-2.7922,-2.7914,-2.7902,-2.7997,-2.7997,-2.806,-2.806,-2.8061]},{"header":{"parameterUnit":"m.s-1","parameterCategory":1,"la1":30.2991,"la2":30.254,"lo1":-89.0895,"lo2":-89.0444,"dy":0.0017,"dx":0.0017,"nx":28,"ny":28,"refTime":"2023-10-06T03:00:00:Z","depth":0,"parameterNumber":3,"parameterNumberName":"V-component_of_WINDS"},"data":[0,0,0,0,0,0,0,0,0,0,0,0,0,0,0,0,0,0,0,0,0,0,0,0,0,0,0,0,0,0,0,0,0,0,0,0,0,0,0,0,0,0,0,0,0,0,0,0,0,0,0,0,0,0,0,0,0,0,2.21,2.2101,0,2.2126,2.2127,2.2127,2.2112,2.2111,2.2111,2.211,2.2134,2.2135,2.2137,0,0,0,0,0,0,0,0,0,0,0,0,0,2.2036,2.2037,2.21,2.2101,2.2101,2.2126,2.2127,2.2127,2.2112,2.2111,2.2111,2.211,2.2134,2.2135,2.2137,0,0,0,0,0,0,0,0,0,0,0,0,0,2.2063,2.2038,2.21,2.2097,2.2097,2.2126,2.2127,2.2127,2.2112,2.2111,2.211,2.2109,2.2133,2.2135,2.2137,2.2171,0,0,2.2143,2.2144,0,0,0,0,0,0,0,0,2.2062,2.2065,2.2097,2.2097,2.2097,2.2115,2.2113,2.2142,2.2113,2.2106,2.211,2.2109,2.2128,2.2131,2.2138,2.2172,2.2173,2.2143,2.2144,2.2145,2.2146,0,0,0,0,0,0,0,2.206,2.2064,2.211,2.2097,2.2097,2.2093,2.2096,2.2118,2.2123,2.2107,2.2106,2.2109,2.2128,2.2136,2.2138,2.2173,2.2143,2.2145,2.2146,2.2147,2.2238,2.2239,0,0,0,0,0,0,2.2058,2.2063,2.211,2.2111,2.2076,2.2095,2.2098,2.211,2.2123,2.2124,2.211,2.2109,2.2133,2.2136,2.2139,2.218,2.2145,2.2147,2.2148,2.2237,2.2238,2.2239,0,0,0,0,0,0,2.2057,2.2063,2.2109,2.2087,2.2092,2.2098,2.2111,2.2111,2.2119,2.2125,2.2126,2.2117,2.2132,2.2136,2.2164,2.2181,2.2148,2.215,2.2235,2.2237,2.2239,2.2262,0,0,0,0,0,0,2.2055,2.2062,2.2075,2.2087,2.2094,2.2133,2.2112,2.2113,2.2123,2.2121,2.2132,2.2133,2.2132,2.2161,2.2166,2.2183,2.2151,2.2234,2.2236,2.2238,2.226,2.2264,2.2268,0,0,0,0,0,2.2053,2.208,2.2076,2.2082,2.211,2.2134,2.2137,2.2136,2.2124,2.2137,2.2142,2.2133,2.2178,2.2164,2.2169,2.2187,2.2232,2.2235,2.2238,2.2258,2.2263,2.2268,0,0,0,0,0,0,2.2068,2.2081,2.2077,2.2109,2.2121,2.2131,2.2148,2.2142,2.2157,2.2154,2.2152,2.2154,2.2183,2.2188,2.2171,2.2221,2.2203,2.2207,2.2217,2.2222,2.2227,2.2224,2.2153,0,0,0,0,0,2.2075,2.2094,2.2105,2.2131,2.2138,2.2142,2.2152,2.2151,2.2162,2.2167,2.2173,2.2184,2.2201,2.2212,2.2228,2.2261,2.2263,2.2276,2.2281,2.2284,2.2287,2.2306,2.2312,2.2249,2.2249,2.2248,0,0,2.209,2.2099,2.2111,2.2135,2.2144,2.2163,2.2146,2.2167,2.2181,2.217,2.2196,2.2201,2.2213,2.2244,2.2258,2.2249,2.2306,2.2288,2.2291,2.2292,2.2309,2.2315,2.2321,2.225,2.225,2.225,0,0,2.2126,2.2135,2.2159,2.217,2.2184,2.2187,2.2193,2.2205,2.2209,2.2236,2.2228,2.2245,2.2274,2.2283,2.2292,2.2335,2.2327,2.234,2.2362,2.238,2.2385,2.239,2.2405,2.2411,2.2343,2.2343,2.2343,0,2.2142,2.2171,2.2172,2.2194,2.2205,2.2198,2.2222,2.2231,2.225,2.2257,2.2248,2.2285,2.2293,2.2326,2.2337,2.2344,2.235,2.2338,2.2385,2.2389,2.2393,2.2408,2.2414,2.2345,2.2345,2.2344,2.2344,0,2.219,2.2211,2.2229,2.2249,2.2262,2.2285,2.2289,2.2302,2.23,2.2304,2.2332,2.2341,2.2359,2.2367,2.2365,2.2401,2.2395,2.2385,2.2367,2.2401,2.2414,2.242,2.2347,2.2346,2.2346,2.2346,0,0,2.2234,2.2257,2.2263,2.2273,2.2289,2.2305,2.2328,2.2348,2.2359,2.2373,2.2392,2.2418,2.241,2.2419,2.2418,2.2435,2.2468,2.2423,2.2423,2.2431,2.2508,2.2515,2.2521,2.2464,2.2465,2.2466,2.2507,0,2.2272,2.2313,2.2316,2.2353,2.2373,2.2367,2.2388,2.24,2.2405,2.2422,2.2427,2.2446,2.2434,2.244,2.2456,2.2461,2.2484,2.2458,2.2481,2.2482,2.2477,2.2529,2.2535,2.2573,2.2513,2.2514,2.2514,0,2.232,2.2337,2.2377,2.2393,2.2401,2.2419,2.2438,2.2455,2.2469,2.2471,2.2484,2.2481,2.2505,2.2487,2.252,2.2502,2.2512,2.2517,2.2518,2.2519,2.2499,2.253,2.2586,2.2591,2.2523,2.2522,2.2521,0,2.2348,2.2381,2.241,2.2418,2.2437,2.245,2.2459,2.2472,2.2484,2.25,2.2508,2.2527,2.2536,2.2551,2.2553,2.254,2.2586,2.2568,2.2588,2.2588,2.2597,2.2596,2.2653,2.2604,2.2604,2.2604,2.2604,0,2.2389,2.2413,2.2423,2.244,2.2468,2.2471,2.2498,2.2505,2.2518,2.2536,2.2533,2.255,2.2553,2.257,2.2572,2.2599,2.2604,2.2606,2.2606,2.2606,2.2606,2.2611,2.2609,2.2606,2.2605,2.2605,2.2605,0,2.2424,2.2431,2.2462,2.2479,2.2484,2.2503,2.2517,2.2534,2.254,2.2563,2.2569,2.2577,2.2598,2.2603,2.2627,2.2629,2.2661,2.2658,2.2656,2.2655,2.2675,2.2673,2.2738,2.2746,2.2692,2.2693,2.2693,0,2.2449,2.2468,2.2488,2.2501,2.2511,2.2531,2.2544,2.2548,2.2562,2.2581,2.2595,2.2616,2.2633,2.2667,2.2675,2.2694,2.2692,2.2713,2.2694,2.2694,2.2692,2.269,2.2692,2.2716,2.2717,2.2717,2.2718,0,2.2493,2.2497,2.2516,2.2537,2.2553,2.257,2.2586,2.2596,2.2603,2.2618,2.264,2.2654,2.268,2.2701,2.2721,2.2728,2.2724,2.2724,2.273,2.2729,2.2727,2.2728,2.2665,2.2722,2.2722,2.2721,2.2721,2.2721,2.2524,2.2541,2.2558,2.258,2.2593,2.2609,2.2626,2.2635,2.2654,2.2676,2.2678,2.2702,2.2717,2.2743,2.2753,2.2772,2.2765,2.2773,2.2775,2.2776,2.2778,2.2725,2.2775,2.2775,2.2775,2.2775,2.2775,0,2.2567,2.2579,2.2599,2.2623,2.264,2.2637,2.2655,2.2669,2.2692,2.2707,2.2724,2.2751,2.2772,2.2782,2.2803,2.2816,2.2814,2.2821,2.282,2.2822,2.2783,2.2776,2.2822,2.2822,2.2822,2.2822,2.2822,2.2822,2.2592,2.2621,2.2627,2.2663,2.2674,2.27,2.271,2.2724,2.2737,2.2767,2.2785,2.2792,2.2805,2.2827,2.2846,2.2849,2.2856,2.2864,2.2865,2.2829,2.2824,2.2819,2.2813,2.2866,2.2866,2.2902,2.2903,2.2903]}]]